Weather History for Glendive, MT

Change the Weather History Date:

Sunday, January 20, 2013

  Actual Average Record
Temperature  
Mean Temperature 2 °F -  
Max Temperature 14 °F 23 °F 51 °F (2005)
Min Temperature -9 °F 6 °F -9 °F (2013)
Degree Days  
Heating Degree Days 62    
Moisture  
Dew Point -4 °F    
Average Humidity 71    
Maximum Humidity 92    
Minimum Humidity 55    
Precipitation  
Precipitation 0.00 in - - ()
Sea Level Pressure  
Sea Level Pressure 30.41 in    
Wind  
Wind Speed 10 mph (NNW)    
Max Wind Speed 21 mph    
Max Gust Speed 25 mph    
Visibility 9 miles    
Events      
Averages and records for this station are not official NWS values.
T = Trace of Precipitation, MM = Missing Value Source: NWS Daily Summary

Daily Weather History Graph

Daily Weather History Graph

Search for Another Location

Airport:

Trip Planner

Search our weather history database for the weather conditions in past years. The results will help you decide how hot, cold, wet, or windy it might be!

Date:

Astronomy

Jan. 20, 2013 Rise Set
Actual Time 7:37 AM MST 4:44 PM MST
Civil Twilight 7:03 AM MST 5:18 PM MST
Nautical Twilight 6:25 AM MST 5:55 PM MST
Astronomical Twilight 5:49 AM MST 6:31 PM MST
Moon 11:47 AM MST 2:09 AM MST
Length of Visible Light 10h 14m
Length of Day
9h 07m
Waxing Gibbous, 67% of the Moon is Illuminated
Jan 20
Waxing Gibbous
Jan 26
Full
Feb 3
Last Quarter
Feb 10
New
Feb 17
First Quarter

Hourly Weather History & Observations

Time (MST) Temp. Windchill Dew Point Humidity Pressure Visibility Wind Dir Wind Speed Gust Speed Precip Events Conditions
12:15 AM 14.0 °F 5.1 °F 8.6 °F 79% 30.18 in 10.0 mi NNE 5.8 mph - N/A   Overcast
12:35 AM 14.0 °F 2.0 °F 8.6 °F 79% 30.19 in 10.0 mi North 9.2 mph - N/A   Overcast
12:55 AM 14.0 °F 2.9 °F 8.6 °F 79% 30.20 in 10.0 mi North 8.1 mph - N/A   Overcast
1:15 AM 14.0 °F 2.0 °F 8.6 °F 79% 30.22 in 9.0 mi North 9.2 mph - N/A   Overcast
1:35 AM 14.0 °F 2.9 °F 8.6 °F 79% 30.24 in 4.0 mi North 8.1 mph - N/A   Overcast
1:55 AM 14.0 °F 5.1 °F 8.6 °F 79% 30.26 in 2.0 mi North 5.8 mph - N/A   Overcast
2:15 AM 14.0 °F 3.9 °F 10.4 °F 86% 30.27 in 3.0 mi North 6.9 mph - N/A   Overcast
2:35 AM 14.0 °F 3.9 °F 8.6 °F 79% 30.28 in 2.5 mi North 6.9 mph - N/A   Overcast
2:55 AM 14.0 °F 6.5 °F 10.4 °F 86% 30.28 in 4.0 mi North 4.6 mph - N/A   Overcast
3:15 AM 14.0 °F 6.5 °F 8.6 °F 79% 30.29 in 7.0 mi NNW 4.6 mph - N/A   Scattered Clouds
3:35 AM 14.0 °F 6.5 °F 8.6 °F 79% 30.30 in 5.0 mi NNW 4.6 mph - N/A   Partly Cloudy
3:55 AM 14.0 °F 1.2 °F 8.6 °F 79% 30.31 in 10.0 mi North 10.4 mph - N/A   Scattered Clouds
4:15 AM 14.0 °F -2.5 °F 8.6 °F 79% 30.32 in 5.0 mi NNW 17.3 mph - N/A   Overcast
4:35 AM 12.2 °F -5.8 °F 6.8 °F 79% 30.34 in 7.0 mi North 19.6 mph - N/A   Scattered Clouds
5:15 AM 12.2 °F -6.3 °F 6.8 °F 79% 30.38 in 6.0 mi North 20.7 mph 25.3 mph N/A   Mostly Cloudy
5:35 AM 10.4 °F -4.8 °F 3.2 °F 73% 30.39 in 9.0 mi North 12.7 mph 23.0 mph N/A   Mostly Cloudy
5:55 AM 10.4 °F -5.4 °F 3.2 °F 73% 30.41 in 8.0 mi North 13.8 mph - N/A   Clear
6:15 AM 8.6 °F -6.3 °F 3.2 °F 79% 30.41 in 10.0 mi NNW 11.5 mph - N/A   Partly Cloudy
6:35 AM 8.6 °F -7.0 °F 1.4 °F 73% 30.41 in 10.0 mi NNW 12.7 mph - N/A   Partly Cloudy
6:55 AM 8.6 °F -8.3 °F 1.4 °F 73% 30.41 in 10.0 mi NNW 15.0 mph - N/A   Partly Cloudy
7:15 AM 8.6 °F -8.9 °F 1.4 °F 73% 30.44 in 9.0 mi NNW 16.1 mph - N/A   Mostly Cloudy
7:35 AM 6.8 °F -9.3 °F -0.4 °F 72% 30.45 in 10.0 mi NNW 12.7 mph - N/A   Overcast
7:55 AM 6.8 °F -10.0 °F -2.2 °F 67% 30.46 in 10.0 mi NNW 13.8 mph 19.6 mph N/A   Overcast
8:15 AM 6.8 °F -10.0 °F -0.4 °F 72% 30.47 in 7.0 mi NNW 13.8 mph - N/A   Overcast
8:35 AM 6.8 °F -10.7 °F -2.2 °F 67% 30.48 in 10.0 mi NNW 15.0 mph - N/A   Overcast
8:55 AM 5.0 °F -11.6 °F -2.2 °F 72% 30.49 in 10.0 mi North 12.7 mph - N/A   Overcast
9:15 AM 5.0 °F -13.0 °F -2.2 °F 72% 30.50 in 10.0 mi North 15.0 mph - N/A   Overcast
9:55 AM 1.4 °F -19.4 °F -7.6 °F 66% 30.50 in 10.0 mi North 18.4 mph - N/A   Scattered Clouds
10:15 AM 1.4 °F -18.8 °F -5.8 °F 72% 30.51 in 10.0 mi NNW 17.3 mph - N/A   Clear
10:55 AM -0.4 °F -19.2 °F -7.6 °F 72% 30.52 in 10.0 mi North 13.8 mph - N/A   Scattered Clouds
11:15 AM -0.4 °F -20.5 °F -9.4 °F 66% 30.51 in 10.0 mi North 16.1 mph - N/A   Scattered Clouds
11:35 AM -0.4 °F -19.9 °F -9.4 °F 66% 30.51 in 10.0 mi NNW 15.0 mph - N/A   Mostly Cloudy
11:55 AM -0.4 °F -18.4 °F -9.4 °F 66% 30.51 in 10.0 mi NW 12.7 mph - N/A   Overcast
12:15 PM -0.4 °F -19.9 °F -9.4 °F 66% 30.49 in 10.0 mi NNW 15.0 mph - N/A   Scattered Clouds
12:35 PM -0.4 °F -19.2 °F -9.4 °F 66% 30.49 in 10.0 mi NNW 13.8 mph - N/A   Mostly Cloudy
12:55 PM -0.4 °F -16.7 °F -9.4 °F 66% 30.49 in 10.0 mi NW 10.4 mph - N/A   Overcast
1:35 PM -2.2 °F -21.5 °F -9.4 °F 71% 30.48 in 10.0 mi NNW 13.8 mph - N/A   Mostly Cloudy
1:55 PM -0.4 °F -20.5 °F -7.6 °F 72% 30.47 in 10.0 mi NNW 16.1 mph - N/A   Overcast
2:15 PM -0.4 °F -19.9 °F -11.2 °F 60% 30.46 in 10.0 mi NNW 15.0 mph - N/A   Overcast
2:35 PM -0.4 °F -19.9 °F -7.6 °F 72% 30.47 in 10.0 mi NNW 15.0 mph - N/A   Overcast
2:55 PM -0.4 °F -18.4 °F -9.4 °F 66% 30.46 in 10.0 mi North 12.7 mph - N/A   Overcast
3:15 PM -0.4 °F -16.7 °F -9.4 °F 66% 30.47 in 10.0 mi NNW 10.4 mph - N/A   Overcast
3:35 PM -2.2 °F -18.9 °F -9.4 °F 71% 30.46 in 10.0 mi NNW 10.4 mph - N/A   Overcast
3:55 PM -2.2 °F -19.9 °F -11.2 °F 66% 30.46 in 10.0 mi NNW 11.5 mph - N/A   Overcast
4:15 PM -2.2 °F -19.9 °F -11.2 °F 66% 30.46 in 10.0 mi NW 11.5 mph - N/A   Overcast
4:35 PM -2.2 °F -18.9 °F -11.2 °F 66% 30.46 in 10.0 mi NW 10.4 mph - N/A   Overcast
4:55 PM -2.2 °F -19.9 °F -11.2 °F 66% 30.46 in 10.0 mi NW 11.5 mph - N/A   Overcast
5:15 PM -2.2 °F -19.9 °F -11.2 °F 66% 30.46 in 10.0 mi WNW 11.5 mph 17.3 mph N/A   Overcast
5:35 PM -2.2 °F -20.7 °F -11.2 °F 66% 30.46 in 10.0 mi NW 12.7 mph - N/A   Overcast
6:15 PM -2.2 °F -20.7 °F -14.8 °F 55% 30.46 in 10.0 mi WNW 12.7 mph - N/A   Overcast
6:35 PM -4.0 °F -23.0 °F -14.8 °F 60% 30.46 in 10.0 mi NW 12.7 mph 18.4 mph N/A   Overcast
6:55 PM -4.0 °F -22.1 °F -14.8 °F 60% 30.46 in 10.0 mi WNW 11.5 mph - N/A   Mostly Cloudy
7:15 PM -5.8 °F -23.4 °F -16.6 °F 60% 30.46 in 10.0 mi WNW 10.4 mph - N/A   Clear
8:15 PM -7.6 °F -22.1 °F -16.6 °F 65% 30.45 in 10.0 mi NW 6.9 mph - N/A   Clear
8:35 PM -9.4 °F -25.6 °F -18.4 °F 65% 30.43 in 10.0 mi WNW 8.1 mph - N/A   Clear
8:55 PM -7.6 °F -22.1 °F -14.8 °F 71% 30.43 in 10.0 mi West 6.9 mph - N/A   Clear
9:15 PM -7.6 °F -24.6 °F -9.4 °F 92% 30.43 in 10.0 mi WNW 9.2 mph - N/A   Clear
9:35 PM -5.8 °F -21.2 °F -14.8 °F 65% 30.43 in 10.0 mi WNW 8.1 mph - N/A   Clear
9:55 PM -4.0 °F -16.3 °F -13.0 °F 65% 30.43 in 10.0 mi NW 5.8 mph - N/A   Mostly Cloudy
10:15 PM -4.0 °F -21.2 °F -13.0 °F 65% 30.42 in 10.0 mi West 10.4 mph - N/A   Scattered Clouds
10:35 PM -4.0 °F -19.0 °F -11.2 °F 71% 30.42 in 10.0 mi West 8.1 mph - N/A   Clear
10:55 PM -4.0 °F -17.8 °F -13.0 °F 65% 30.42 in 10.0 mi West 6.9 mph - N/A   Clear
11:15 PM -2.2 °F -16.8 °F -9.4 °F 71% 30.42 in 10.0 mi WNW 8.1 mph - N/A   Clear
11:35 PM -2.2 °F -18.0 °F -11.2 °F 66% 30.40 in 10.0 mi WNW 9.2 mph - N/A   Clear
11:55 PM -2.2 °F -15.6 °F - N/A% 30.40 in 10.0 mi NW 6.9 mph - N/A   Clear